Wind_Speed
86 87 88 89 90 90 91 92 93 94 95 95 95 95 96 96 96 96 96 97 97 96 96 96 95 95 95 96 96 97 97 98 98 99 99 98 98 97 97 96 95 95 94 94 94 94 94 93 92 91 90 90 90 90 89 88 87 85 84 82 80 78 77 76 76 76 76 75 73 72 70 68 66 65 65 65 64 65 66 67 68 67 65 64 63 62
85 86 86 87 88 89 90 91 92 93 94 95 95 95 95 95 95 96 96 96 96 96 96 95 95 95 95 95 96 96 97 97 98 98 98 98 98 97 97 96 95 94 94 94 94 94 94 94 93 92 91 91 91 91 90 89 88 87 86 84 82 80 79 78 77 77 77 75 74 73 71 69 67 66 66 65 65 65 66 67 68 67 65 64 63 62
85 85 85 86 87 88 89 89 91 92 93 94 95 95 95 95 95 95 95 95 95 95 95 95 95 95 95 95 95 95 96 97 97 97 98 98 98 97 97 96 95 94 94 94 94 94 94 94 93 92 92 92 92 92 91 90 89 88 87 86 84 83 81 79 78 78 78 77 75 73 72 70 69 68 67 66 66 66 67 68 68 67 65 64 63 62
84 84 84 85 85 86 87 88 89 90 91 93 94 94 95 95 95 94 94 94 94 94 94 94 94 94 94 94 94 95 95 96 96 97 97 98 97 97 97 96 95 94 94 94 94 94 94 93 93 93 93 93 93 92 91 90 90 89 88 88 86 85 83 81 80 79 79 77 76 74 73 71 70 69 68 67 67 67 67 67 67 66 65 64 63 63
84 84 84 84 84 85 86 86 87 89 90 91 92 93 94 94 94 94 94 93 93 93 93 93 93 93 94 94 94 94 95 95 96 96 97 97 97 97 96 96 95 94 93 94 94 94 94 93 93 93 93 94 93 92 91 91 91 90 89 89 88 87 86 84 82 81 80 78 77 75 74 73 71 70 69 69 68 67 67 67 67 66 65 64 63 63
84 84 84 84 84 84 85 85 86 87 88 89 91 91 92 93 94 94 93 93 92 92 92 92 92 92 93 93 93 93 94 95 95 96 96 97 97 97 96 96 95 94 93 93 94 94 94 93 93 93 93 94 93 92 91 91 91 91 90 90 89 88 87 86 84 82 81 79 77 76 75 74 73 72 70 70 69 68 68 68 67 66 65 64 63 63
84 84 84 84 84 84 84 85 85 86 88 89 89 90 91 92 92 93 93 92 92 92 91 91 91 91 91 92 92 93 93 94 95 95 96 96 97 96 96 95 95 94 93 93 93 94 94 93 93 93 93 94 94 93 92 91 91 91 91 90 90 89 89 88 87 84 82 80 78 76 75 74 74 73 72 70 70 69 69 68 67 66 65 64 64 64
84 84 84 84 84 84 84 85 85 86 87 88 89 89 90 90 91 91 92 92 92 91 91 90 90 89 90 90 91 92 92 93 94 95 95 96 96 96 96 95 94 94 93 92 93 93 94 94 93 93 93 94 93 93 92 91 91 91 91 91 90 90 90 90 89 86 83 81 79 77 76 75 75 74 73 71 70 70 69 68 67 66 65 64 64 64
85 84 84 84 84 85 85 85 85 86 87 88 88 89 89 89 90 90 90 91 91 91 91 90 89 88 88 89 89 90 91 92 93 94 95 95 96 96 96 95 95 94 93 92 92 93 94 94 93 93 93 93 93 93 92 91 91 91 91 91 91 91 91 91 90 88 85 82 80 78 77 76 76 75 74 72 71 70 70 69 67 66 65 65 65 65
85 85 85 85 85 85 85 85 85 86 87 88 88 89 89 89 89 89 89 89 90 90 90 90 89 87 87 87 88 89 90 91 92 93 94 94 95 95 96 95 95 94 93 92 92 92 93 93 93 93 93 93 93 92 92 91 91 91 91 91 91 91 91 91 91 89 86 84 81 79 78 77 77 76 75 73 72 71 70 69 68 67 66 66 66 65
86 86 85 85 85 85 85 86 86 86 87 88 89 89 88 89 89 89 88 88 88 89 89 89 89 87 86 86 86 87 88 90 91 92 93 93 94 95 95 95 95 94 93 92 92 91 92 93 93 93 93 93 92 92 91 91 91 91 91 91 91 92 92 92 91 90 88 85 82 80 79 78 78 77 76 74 73 72 71 70 69 68 68 67 67 66
87 86 86 86 86 86 86 86 86 87 87 88 89 89 89 89 88 88 88 87 87 87 88 89 88 87 86 85 85 85 87 88 89 90 91 92 93 94 95 95 95 94 93 92 92 91 91 92 93 93 93 92 92 91 91 91 91 90 91 91 91 92 92 92 91 90 89 87 84 82 80 79 79 78 77 75 74 73 73 72 71 70 69 68 67 66
87 87 86 86 86 86 86 86 87 87 88 88 89 89 89 89 89 88 88 86 86 86 87 88 88 87 86 84 84 84 85 86 87 88 89 91 92 93 94 95 95 94 93 92 92 91 91 91 92 93 93 92 91 91 91 91 90 90 90 91 91 92 92 92 91 91 90 88 85 83 81 80 80 80 78 77 76 75 74 73 72 71 69 68 67 66
87 87 86 86 86 85 86 86 87 88 88 88 89 89 89 89 89 88 88 86 85 85 85 86 87 87 85 84 83 83 83 85 86 87 88 89 90 91 93 94 94 94 93 92 91 91 90 91 92 92 93 92 91 91 90 90 90 90 91 91 91 91 92 92 92 91 90 88 86 83 81 81 81 81 80 79 78 77 75 74 73 71 70 68 67 66
87 87 86 86 85 85 85 86 87 87 88 88 89 89 89 89 89 88 87 86 85 84 84 85 86 86 85 84 83 82 82 83 84 85 86 87 88 90 91 93 94 94 93 92 91 91 90 90 91 92 92 92 91 90 90 91 91 91 90 90 90 91 91 92 92 91 90 88 86 84 83 83 83 83 82 81 80 78 77 75 74 72 70 69 67 66
87 86 86 85 85 85 85 86 86 87 88 88 89 89 89 89 89 88 87 86 84 83 83 83 84 84 84 84 82 82 82 82 83 84 85 86 87 88 90 92 93 93 93 92 91 91 90 90 90 91 91 91 91 90 90 91 91 91 90 90 90 91 92 92 92 91 90 88 87 85 84 84 85 84 84 83 81 80 78 76 74 72 71 69 68 67
86 86 85 85 85 84 85 85 86 87 87 88 88 89 89 89 88 87 87 86 84 83 82 82 83 83 83 83 83 82 82 82 82 83 83 84 85 87 89 91 92 93 92 92 91 90 90 90 90 90 90 90 90 90 90 90 91 90 90 90 91 91 92 92 92 91 90 89 87 86 85 86 86 86 85 84 83 81 80 78 75 72 71 70 69 68
85 85 85 84 84 84 84 85 85 86 87 87 88 88 88 88 88 87 86 85 84 83 82 81 81 82 82 83 83 82 81 81 81 82 82 83 84 85 87 89 91 91 92 91 91 90 90 90 90 89 89 90 89 89 90 90 91 91 91 91 92 92 93 93 92 91 90 89 88 87 86 87 88 88 87 86 84 82 81 78 76 73 72 71 70 69
85 84 84 84 84 83 83 84 85 85 86 87 87 88 88 88 87 87 86 85 84 83 82 81 80 80 81 82 82 82 81 81 81 81 81 82 82 84 85 87 89 90 90 90 90 90 90 90 89 89 88 88 89 89 89 90 91 92 92 93 93 93 93 93 93 92 91 89 88 87 87 88 89 89 88 87 85 83 81 79 76 74 73 72 71 70
84 83 83 84 83 83 83 83 84 85 86 86 87 87 87 87 87 86 86 84 83 82 81 80 79 79 80 81 82 82 82 81 80 80 80 80 81 82 84 86 87 89 89 90 89 89 89 89 89 88 88 88 88 89 89 90 92 93 94 94 94 94 93 93 92 92 91 90 88 88 88 89 90 90 89 87 85 83 81 79 77 76 74 73 72 71
84 83 83 83 83 83 82 82 83 84 85 85 86 86 86 86 86 86 85 84 83 82 80 79 79 78 78 80 81 82 82 81 80 79 79 79 80 81 82 84 86 87 88 88 88 89 89 88 88 87 87 87 87 88 90 91 92 94 96 96 95 93 92 92 92 92 91 90 89 88 88 89 91 91 90 87 85 83 81 80 79 77 76 74 73 71
83 82 82 83 83 83 82 82 83 84 84 85 85 85 85 85 85 85 84 83 82 81 80 78 77 77 78 79 80 81 81 81 80 79 78 78 79 80 81 82 84 85 86 87 87 87 88 88 87 87 86 86 87 89 90 92 94 96 97 96 94 92 91 91 91 91 91 90 89 89 89 91 92 91 89 86 84 82 82 81 80 79 77 76 74 72
83 82 81 82 82 82 82 82 82 83 84 84 84 84 84 84 84 84 83 82 81 80 78 77 76 76 77 78 79 80 81 81 80 78 77 77 78 79 80 81 82 83 84 85 85 86 86 87 86 86 85 86 87 89 91 93 96 97 98 96 94 91 90 90 91 91 91 90 89 90 90 92 92 91 88 85 83 83 82 82 81 80 79 77 75 73
82 81 80 80 81 81 81 81 82 82 83 83 84 84 83 83 83 83 82 81 80 79 77 76 76 76 76 77 78 79 80 80 79 78 77 77 77 78 79 80 81 82 83 83 83 84 85 85 85 85 85 86 87 89 91 94 97 98 98 96 93 91 89 90 91 91 90 90 89 90 91 92 91 89 86 84 84 83 83 83 82 81 79 77 75 74
82 80 79 79 79 80 80 80 81 81 82 83 83 83 83 83 82 82 81 80 79 78 76 75 75 75 75 76 77 78 79 80 79 78 77 76 76 77 78 79 79 80 81 81 82 82 83 84 84 84 85 86 88 90 92 95 97 99 98 96 92 90 89 90 90 90 90 89 89 90 90 90 88 86 85 84 84 84 83 83 82 81 80 78 76 75
80 79 78 78 78 78 78 78 79 80 81 82 82 83 82 82 81 81 79 78 77 76 75 75 74 74 74 75 76 77 78 79 79 78 76 75 76 76 77 78 78 79 79 79 80 81 82 83 83 84 85 86 88 91 93 96 98 99 98 95 91 89 88 89 90 89 89 89 89 89 88 87 86 85 85 85 85 85 85 84 83 82 80 79 77 76
78 77 76 76 75 76 76 76 77 78 79 80 81 81 82 81 80 79 78 77 76 75 74 73 73 72 73 74 75 77 78 78 78 77 76 75 75 76 77 77 77 77 78 78 79 80 81 82 83 84 85 87 89 92 94 97 99 99 97 93 90 88 88 89 89 89 89 89 88 88 87 85 85 84 84 85 86 86 86 85 84 83 81 80 78 76
76 74 73 73 73 73 73 74 74 75 76 78 79 80 80 80 79 78 76 75 75 74 73 72 72 72 73 74 75 76 77 78 77 76 75 75 75 75 76 76 76 76 77 77 78 79 80 81 82 83 85 87 90 92 95 98 99 98 96 92 89 88 88 89 90 89 89 89 88 87 86 85 85 85 85 86 87 88 87 86 86 84 83 81 79 77
73 72 70 70 70 70 70 70 71 72 73 75 76 78 78 78 77 75 74 74 73 73 72 71 70 71 72 73 74 75 76 77 76 76 75 74 75 75 75 75 76 76 76 77 77 78 79 80 81 83 85 87 90 92 95 97 98 97 94 91 89 88 89 90 90 90 89 89 88 87 86 84 84 86 87 87 88 88 87 87 87 86 84 81 79 77
70 69 67 67 66 66 66 67 67 68 70 71 73 74 75 75 74 73 72 72 72 71 70 69 69 70 71 72 73 74 75 75 75 75 75 74 74 74 75 75 76 76 76 76 76 77 78 79 80 82 84 87 89 92 95 96 96 94 92 91 90 90 90 90 90 90 90 89 88 86 84 80 83 87 88 88 88 87 87 88 88 87 85 82 80 78
68 66 64 63 63 63 63 63 64 65 66 67 69 71 72 72 71 70 70 70 70 69 68 68 69 70 70 71 72 73 74 74 75 75 75 74 74 74 74 75 75 75 75 75 76 76 77 78 80 82 84 86 89 91 93 94 94 93 92 92 91 90 90 90 90 90 90 90 88 86 83 82 84 86 87 87 87 87 88 89 89 87 85 82 80 78
65 63 62 60 60 59 59 60 60 61 62 64 65 67 68 68 68 67 67 67 66 66 66 67 68 69 69 70 71 71 72 73 74 75 75 74 73 74 75 75 75 74 74 74 75 75 76 77 79 81 83 85 88 90 91 92 92 93 93 93 91 90 89 89 90 90 90 90 89 88 87 87 87 87 87 87 87 88 88 89 88 87 84 82 80 79
63 61 60 58 57 56 56 57 57 58 59 61 62 63 64 65 64 64 63 63 63 64 64 65 66 67 68 69 69 70 71 73 75 75 74 73 73 74 74 74 74 74 74 74 74 75 75 76 78 80 82 85 87 89 90 91 92 93 94 93 90 89 88 89 90 91 91 91 90 89 90 89 89 89 88 88 88 88 89 89 88 86 84 82 81 79
61 59 58 56 55 54 54 55 55 56 57 58 59 60 61 61 61 60 60 60 60 61 62 63 64 66 67 67 68 69 71 73 75 75 74 73 73 73 74 74 74 73 73 73 74 74 75 76 77 79 81 84 86 87 89 90 92 94 94 92 90 88 89 89 90 91 92 91 91 89 86 88 89 89 89 89 89 89 89 89 88 86 85 83 81 79
59 57 56 54 53 53 53 53 53 54 55 56 57 58 58 58 58 57 57 57 57 58 59 61 63 64 65 66 67 69 71 73 74 74 73 73 73 73 73 73 73 73 73 73 73 74 74 75 77 79 81 83 85 86 88 90 92 93 93 91 89 88 89 90 91 92 92 91 88 84 82 86 89 90 90 90 90 90 90 90 88 87 85 83 81 79
57 56 54 53 52 51 51 51 52 52 53 54 55 55 56 56 55 55 54 54 55 56 58 60 61 63 64 65 66 68 70 72 73 73 73 72 72 72 73 72 72 72 72 72 73 73 74 75 76 78 80 82 84 86 87 89 92 93 92 90 89 89 90 91 91 92 92 90 88 86 86 88 91 92 92 92 91 91 91 90 89 87 85 83 82 80
55 54 52 51 50 49 49 49 50 50 51 52 52 53 53 53 53 52 52 52 53 54 56 58 60 62 63 64 66 68 70 72 73 72 71 71 71 72 72 72 72 72 72 72 72 72 73 74 75 77 79 81 83 85 87 89 91 92 92 90 89 89 90 91 92 92 91 89 88 87 86 88 90 92 93 92 91 91 90 90 88 87 85 83 82 80
53 52 51 49 48 48 47 47 47 48 48 49 50 50 50 50 50 50 50 51 52 53 55 57 59 61 62 64 65 68 70 71 72 71 70 70 70 71 71 71 71 71 71 71 71 71 72 73 74 76 79 81 82 84 86 89 91 92 92 90 90 90 91 92 92 91 90 88 87 87 86 87 90 92 92 92 91 90 90 89 88 87 85 83 82 80
51 50 49 48 47 46 46 45 45 45 46 46 47 47 47 47 47 48 48 49 50 52 54 56 58 60 61 63 65 67 69 70 70 69 69 69 70 70 70 70 70 70 70 70 70 70 71 72 74 76 78 80 82 84 86 88 90 91 91 90 90 90 91 91 91 90 89 88 87 87 88 90 91 92 91 89 89 89 89 89 88 87 85 83 82 80
49 48 47 46 45 44 44 43 43 43 43 44 44 44 44 45 45 46 47 48 49 51 54 56 57 59 61 63 64 66 68 68 68 68 68 69 69 70 69 69 69 69 69 69 69 69 70 71 73 75 77 79 81 83 85 87 89 90 91 90 90 90 90 90 90 89 88 87 87 88 89 91 91 90 88 87 87 87 88 89 88 87 85 83 81 79
47 46 45 44 43 42 42 41 41 41 41 41 41 42 42 42 43 44 45 47 49 51 53 55 57 58 60 62 64 65 66 67 67 67 67 68 69 69 69 69 68 68 68 68 68 68 69 70 72 74 76 78 80 83 85 87 89 91 91 90 89 89 89 89 89 88 88 88 89 90 91 91 90 88 86 86 86 87 88 88 88 86 84 82 80 78
45 44 43 42 41 41 40 40 39 39 39 39 39 40 40 40 41 42 44 46 48 50 52 54 55 57 59 61 62 64 65 65 65 66 67 68 68 69 68 68 67 67 67 66 66 67 67 69 71 73 75 77 80 82 84 87 89 90 90 88 87 87 87 88 88 88 89 90 92 92 90 89 87 86 85 85 86 86 88 88 88 86 83 81 79 77
43 42 41 40 39 39 38 38 37 37 37 37 37 37 38 39 40 41 43 44 47 49 51 52 54 56 58 59 61 62 63 64 64 65 66 67 68 68 67 66 66 65 65 65 65 65 66 68 69 72 74 77 79 81 84 86 88 89 87 85 84 86 87 88 89 89 91 92 95 94 89 87 87 86 85 85 85 86 88 89 88 85 82 80 78 77
41 40 39 38 37 37 36 36 35 35 35 35 35 35 36 37 38 39 41 43 45 47 48 50 52 54 56 58 59 60 61 62 63 64 66 66 66 66 65 64 64 63 63 63 63 64 65 66 69 71 73 75 78 80 82 85 86 86 84 82 83 86 88 89 90 91 93 95 95 94 92 90 88 86 85 84 85 86 88 89 87 84 81 79 78 77
39 38 37 36 36 35 34 34 33 33 33 33 33 33 34 35 36 37 39 40 42 44 46 48 50 51 53 55 57 58 59 61 62 63 64 64 64 63 62 62 61 61 61 61 62 63 64 66 68 70 72 74 76 78 81 83 84 83 81 81 83 86 88 90 91 93 95 96 96 91 84 84 84 84 84 84 85 87 89 89 87 84 80 78 77 77
37 36 35 35 34 33 33 32 32 31 31 30 31 31 32 33 34 35 36 38 39 41 43 45 47 49 51 53 54 56 57 58 60 61 62 62 61 61 60 59 59 59 59 60 60 61 63 65 67 69 71 74 75 77 80 82 82 80 79 81 84 87 89 90 92 95 97 96 94 90 87 85 84 83 83 83 85 87 89 89 86 82 79 78 77 77
35 34 34 33 32 32 31 30 30 29 29 29 29 29 30 31 32 33 34 35 37 38 40 42 44 46 48 50 52 53 54 56 57 58 59 59 59 58 58 57 57 57 58 58 59 60 62 64 66 69 71 73 75 77 79 80 79 78 79 82 85 88 90 91 94 96 97 94 90 87 86 85 85 84 83 84 86 89 90 88 85 81 78 77 76 76
33 32 32 31 31 30 30 29 28 27 27 27 27 27 28 29 30 31 32 34 35 36 38 40 42 44 46 47 49 51 52 53 55 56 56 57 57 56 56 56 56 56 56 57 58 60 61 63 66 68 70 72 74 76 78 78 77 77 79 83 87 89 90 93 96 97 95 91 86 83 83 84 84 84 84 86 88 90 90 87 83 79 77 76 76 75
31 31 30 30 29 29 28 27 27 26 25 25 25 26 26 27 28 30 31 32 34 35 37 38 40 42 44 46 47 49 50 52 53 54 55 55 55 55 55 55 55 55 55 56 57 59 60 63 65 67 69 71 73 74 76 75 75 77 81 85 87 89 91 94 96 96 92 87 83 81 81 82 83 84 86 88 91 92 89 84 80 77 76 76 75 75
30 29 28 28 28 27 27 26 25 25 24 24 24 24 25 26 27 28 30 31 33 34 36 37 39 41 42 44 45 47 49 50 51 52 53 53 53 53 53 53 54 54 54 55 56 58 60 62 64 66 68 70 71 72 73 73 75 78 82 85 88 90 92 95 96 94 88 84 81 81 82 83 85 87 89 92 93 90 86 81 78 77 76 76 75 74
28 28 27 27 26 26 25 25 24 24 24 23 23 24 24 25 26 27 29 30 32 33 35 36 38 39 41 42 44 45 47 48 49 50 51 52 52 52 52 52 52 53 53 54 56 57 59 61 63 65 67 68 69 70 71 73 76 80 83 86 88 90 93 95 94 91 86 83 82 83 85 87 89 92 94 94 91 86 82 79 77 76 76 75 75 74
Wind_Direction
270 270 270 270 270 270 269 269 269 268 268 267 266 265 265 264 264 263 263 262 262 261 261 260 260 259 259 258 258 258 258 257 257 257 257 257 256 256 255 255 254 254 253 253 253 253 253 253 253 253 253 253 253 253 253 253 254 254 255 254 254 254 253 254 254 255 256 256 257 258 258 258 258 257 258 258 259 259 260 261 263 264 266 267 269 270
270 270 270 270 270 270 270 270 269 269 269 268 267 266 265 264 264 263 263 262 262 261 261 260 260 259 258 258 258 257 257 257 257 257 256 256 256 255 255 254 253 253 253 252 252 252 252 252 252 252 252 251 251 252 252 252 253 253 253 253 253 253 252 252 253 253 254 255 256 256 257 257 257 257 257 257 257 258 259 260 262 263 265 266 268 269
271 270 270 269 269 269 269 269 269 269 269 269 268 267 266 265 264 263 263 262 261 261 260 260 259 259 258 258 257 257 257 256 256 256 256 256 255 255 254 254 253 252 252 251 251 251 251 251 251 251 250 250 250 251 251 251 251 252 252 253 252 252 251 251 251 252 253 254 255 255 256 256 256 256 256 256 257 257 258 259 261 262 264 265 266 268
271 271 270 270 269 269 269 269 269 269 269 269 269 268 267 266 265 264 263 262 261 261 260 260 259 258 258 257 257 256 256 256 256 255 255 255 255 254 254 253 252 252 251 251 251 250 250 250 250 250 249 249 249 250 250 250 250 250 251 251 252 251 251 250 250 251 252 252 253 254 255 255 255 255 255 255 256 256 257 259 260 262 263 264 265 266
272 272 271 270 270 269 269 269 268 268 268 268 268 268 268 267 266 265 264 263 262 261 260 259 259 258 257 257 256 256 255 255 255 255 255 254 254 254 253 253 252 251 250 250 250 250 249 249 249 249 248 249 249 249 248 249 249 249 249 250 250 251 251 250 250 250 250 251 252 253 253 254 254 255 255 255 255 256 257 258 259 261 262 263 264 265
274 273 272 271 271 270 269 269 268 268 268 267 267 267 267 267 266 266 265 264 262 261 260 259 258 258 257 256 256 255 255 255 254 254 254 254 254 253 253 252 252 251 250 249 249 249 249 248 248 248 247 248 248 248 247 247 248 248 248 249 249 249 250 250 250 249 249 250 251 251 252 253 253 254 254 255 255 256 256 257 259 260 261 262 263 263
275 274 274 273 272 271 270 269 269 268 268 267 267 266 266 266 266 266 265 264 263 262 261 259 258 257 257 256 255 255 254 254 254 253 253 253 253 253 252 252 251 250 249 249 248 248 248 247 247 247 246 247 247 247 246 246 247 247 247 247 248 248 249 249 249 249 249 249 250 250 251 252 252 253 254 254 255 255 256 257 258 259 260 260 261 262
276 275 275 274 273 272 271 270 269 269 268 267 267 266 266 265 265 265 265 264 264 262 261 260 258 257 256 255 255 254 254 253 253 253 252 252 252 252 252 251 251 250 249 248 248 247 247 247 246 246 245 245 246 246 245 245 245 246 246 246 246 247 247 248 249 249 249 249 249 249 250 251 251 252 253 254 254 255 256 256 257 258 258 259 260 261
277 276 275 275 274 273 272 271 270 269 268 268 267 266 266 265 265 264 264 264 263 263 262 260 259 257 256 255 254 254 253 253 252 252 252 251 251 251 251 250 250 249 248 248 247 246 246 246 246 245 244 244 245 245 245 244 244 245 245 245 245 245 246 247 248 249 249 249 248 249 249 250 250 251 252 253 253 254 255 256 256 257 257 258 258 259
278 277 276 275 274 274 273 272 271 270 269 268 267 266 266 265 264 264 263 263 262 262 262 261 259 258 256 255 254 253 253 252 252 251 251 251 251 250 250 250 249 249 248 247 246 246 245 245 245 244 244 243 243 244 244 243 243 244 244 244 244 244 245 245 247 248 248 248 248 248 248 249 250 250 251 252 252 253 254 254 255 255 256 256 257 258
279 278 277 276 275 274 273 272 271 270 269 268 268 267 266 265 264 264 263 262 262 262 261 261 260 258 257 255 254 253 252 252 251 251 250 250 250 250 250 249 249 248 247 247 246 245 245 244 244 244 243 243 242 242 242 242 242 243 243 243 243 243 244 244 245 246 247 247 247 247 247 248 249 249 250 251 251 252 253 253 254 254 255 255 256 258
279 278 278 277 276 275 274 273 271 270 269 269 268 267 266 265 264 263 263 262 261 261 260 260 259 258 257 255 254 253 252 251 251 250 250 249 249 249 249 249 248 248 247 246 245 244 244 244 244 244 243 242 242 241 241 241 241 241 242 242 242 243 243 243 244 245 245 246 246 246 246 247 247 248 249 249 250 250 251 252 253 253 254 255 256 257
280 279 278 277 275 275 274 273 272 270 269 269 268 267 266 265 264 263 262 261 261 260 260 259 259 258 257 255 254 253 252 251 250 249 249 249 248 248 248 248 248 247 246 246 245 244 243 243 243 243 243 242 241 241 240 240 240 240 240 241 241 241 242 242 243 244 244 245 245 245 245 245 246 247 247 248 248 249 250 251 251 252 253 254 255 256
280 279 278 276 275 274 273 272 271 270 269 268 268 267 266 265 264 264 263 261 260 259 259 258 258 258 257 256 254 253 252 250 250 249 248 248 247 247 247 247 247 246 246 245 244 243 243 242 242 242 242 242 241 240 240 239 239 239 239 240 240 240 241 241 242 242 243 244 244 244 244 244 244 245 246 246 247 248 249 250 251 252 252 253 254 255
280 279 278 277 275 274 273 272 271 270 269 268 267 266 266 265 264 264 263 262 260 259 258 258 258 257 257 256 254 253 251 250 249 248 247 247 247 246 246 246 246 246 245 244 243 243 242 241 241 241 241 241 240 240 239 238 238 238 238 239 239 239 240 240 241 241 242 242 242 242 242 242 243 244 245 246 246 247 248 249 250 251 252 252 253 254
280 279 278 277 275 274 273 272 270 269 268 267 267 266 265 265 264 263 263 262 261 259 258 257 257 256 256 256 254 253 251 250 249 248 247 246 246 245 245 245 245 245 244 244 243 242 241 241 240 240 240 240 240 239 238 238 238 237 237 237 238 238 238 239 240 240 240 241 241 240 240 241 242 243 244 245 245 246 247 248 249 250 251 251 252 253
280 279 278 277 276 274 273 271 270 269 268 267 266 266 265 264 264 263 262 262 261 259 258 257 256 255 255 255 254 253 251 250 249 248 246 245 245 244 244 244 245 244 244 243 242 241 241 240 239 239 239 239 239 238 238 237 237 237 236 236 236 237 237 238 238 239 239 239 239 239 239 240 241 242 243 244 245 245 246 247 248 249 249 250 251 252
281 280 279 277 276 274 273 271 270 269 268 267 266 265 264 264 263 263 262 261 260 259 258 256 255 255 254 254 254 253 251 250 248 247 246 245 244 244 244 244 244 244 243 243 242 241 240 240 239 238 238 238 238 238 237 237 236 236 235 235 235 235 236 236 237 237 237 238 237 237 238 238 240 241 242 243 244 245 246 246 247 247 248 249 250 251
281 280 279 278 276 274 273 271 270 269 267 266 265 265 264 263 263 262 261 261 260 259 257 256 255 254 253 253 253 252 251 249 248 247 246 245 244 243 243 243 243 243 243 242 241 240 240 239 238 238 237 237 237 236 236 236 235 235 234 234 234 234 235 235 236 236 236 236 236 236 237 237 239 240 241 242 243 244 245 246 246 246 247 248 249 249
282 281 280 278 276 275 273 271 270 268 267 266 265 264 263 263 262 261 261 260 259 258 257 256 254 253 252 252 252 251 250 249 247 246 245 244 243 243 242 242 242 242 242 241 241 240 239 238 238 237 236 236 235 235 235 234 234 234 234 234 234 234 234 234 235 235 235 235 235 235 235 236 237 239 240 241 242 243 244 245 245 245 246 246 247 248
282 281 280 278 277 275 273 271 270 268 267 265 264 263 262 262 261 260 260 259 258 257 256 255 254 253 252 251 251 250 250 249 247 246 245 244 243 242 242 242 241 242 241 241 240 239 238 238 237 236 235 235 234 234 233 233 233 233 234 234 234 234 234 234 234 234 234 234 234 234 234 235 236 238 239 240 241 242 243 244 244 245 245 245 246 247
282 281 279 278 276 275 273 271 269 268 266 265 263 262 261 261 260 259 259 258 257 257 256 255 253 252 251 250 250 250 249 248 247 246 244 243 243 242 241 241 241 241 241 240 240 239 238 237 236 235 234 234 233 233 232 232 232 233 233 234 234 234 233 233 233 233 233 233 233 233 233 234 235 237 238 239 240 241 242 243 244 244 244 244 245 246
282 280 279 277 275 274 272 271 269 267 266 264 263 262 261 260 259 258 258 257 257 256 255 254 253 251 250 249 249 248 248 248 247 245 244 243 242 241 241 241 240 240 240 240 239 238 237 236 235 234 233 232 232 232 232 231 232 232 233 234 234 233 233 232 232 232 232 232 232 232 232 233 235 237 238 238 239 240 241 242 243 243 244 244 245 245
282 280 278 276 275 273 272 270 268 267 265 264 263 261 260 259 258 258 257 256 256 255 254 253 251 250 249 248 247 247 247 247 246 245 243 242 241 241 240 240 239 239 239 239 238 238 237 236 235 233 232 231 231 231 231 231 231 232 233 234 234 233 232 231 232 232 232 232 231 231 232 234 235 236 237 237 238 238 239 241 242 243 244 244 244 245
282 280 278 276 274 273 271 270 268 267 265 264 263 261 260 259 258 257 256 255 255 254 253 251 250 249 248 247 247 246 246 246 245 244 242 241 240 240 240 239 239 238 238 238 237 237 236 235 234 232 231 230 229 229 230 230 231 232 233 234 234 233 231 231 231 231 231 231 231 231 232 233 234 235 236 236 237 237 238 239 241 242 243 244 244 244
282 280 278 276 274 273 271 269 268 266 265 264 262 261 260 259 258 257 256 255 254 253 252 250 249 248 247 246 246 245 245 245 244 243 242 241 240 239 239 239 238 237 237 237 236 235 235 234 233 231 230 229 228 228 229 229 231 232 233 233 233 232 231 231 231 231 231 231 231 231 232 233 233 234 234 235 236 236 237 238 239 240 241 242 243 244
282 280 279 277 275 273 271 270 268 266 265 264 263 261 260 259 258 257 256 255 254 252 251 250 248 247 246 245 244 244 244 243 243 242 241 240 239 239 238 238 237 237 236 236 235 234 234 233 231 230 229 228 228 228 228 229 230 232 233 233 232 231 230 230 230 230 230 230 230 231 231 231 231 232 233 234 235 236 236 237 238 238 240 241 242 243
282 281 279 278 276 274 272 271 269 267 265 264 263 262 261 259 258 257 256 255 253 252 250 249 247 246 244 244 243 243 242 242 242 241 240 239 238 238 238 237 237 236 235 235 234 234 233 232 231 229 228 228 227 227 228 229 230 231 232 232 231 230 229 229 229 229 229 230 230 230 230 229 230 230 231 233 234 235 236 236 237 237 238 239 241 242
283 282 280 279 277 275 274 272 270 268 266 265 263 262 261 260 259 257 256 254 253 251 250 248 246 245 243 242 242 241 241 241 241 240 239 238 237 237 237 237 236 235 235 234 234 233 232 231 230 229 228 227 227 227 228 229 230 231 232 231 230 228 228 228 228 228 228 229 229 229 228 228 228 229 230 232 234 235 236 237 237 237 238 238 239 241
284 283 281 280 278 276 275 273 271 269 267 266 264 263 262 260 259 257 256 254 252 251 249 247 246 244 242 241 241 240 240 240 240 239 238 237 236 236 235 235 235 235 234 233 233 232 231 230 229 228 227 227 226 227 228 229 230 230 230 229 228 227 227 227 227 227 227 228 228 228 227 226 227 228 229 231 233 234 236 237 238 238 238 238 238 239
286 284 282 281 279 277 275 273 271 270 268 266 265 263 262 261 259 257 256 254 252 250 249 246 245 243 241 240 240 239 239 239 239 238 237 236 235 234 234 234 234 234 233 233 232 231 230 229 228 227 227 226 226 227 227 228 229 229 229 228 227 227 226 226 226 226 226 227 227 226 225 225 226 228 229 230 232 234 235 237 238 239 239 238 238 239
287 285 283 281 279 277 275 273 271 269 267 266 264 263 262 260 259 257 255 253 252 250 248 246 244 242 241 240 239 238 238 238 238 237 236 235 234 233 233 233 233 233 232 232 231 231 230 229 228 227 226 226 226 226 227 227 227 228 228 227 227 226 225 225 225 225 225 225 225 225 224 225 226 228 228 230 231 233 234 236 238 239 239 239 239 239
288 286 284 282 279 277 274 272 270 268 266 265 263 262 261 260 258 257 255 253 251 249 246 244 243 241 240 239 238 237 237 237 236 236 235 234 233 233 232 232 232 232 232 231 230 230 229 228 227 226 226 225 225 225 226 226 226 226 227 227 226 225 224 224 224 224 224 224 224 224 224 225 226 227 228 229 230 232 233 235 237 238 239 239 239 240
288 286 284 282 279 277 274 272 269 267 265 264 262 261 260 259 257 256 254 251 249 247 245 243 241 240 239 237 236 236 235 235 235 235 234 233 232 232 232 232 231 231 231 230 230 229 228 227 226 226 225 225 225 224 224 224 225 225 226 226 225 224 223 223 223 223 223 224 224 223 223 224 225 226 227 228 230 231 233 234 236 237 238 239 239 240
289 287 285 283 280 277 275 272 269 267 265 264 262 261 259 258 256 254 252 250 247 245 243 241 240 238 237 236 235 234 234 234 234 234 233 232 231 231 231 231 231 231 230 230 229 228 228 227 226 225 224 224 224 224 223 223 224 225 225 225 224 223 222 222 222 222 223 223 222 221 221 224 226 226 227 228 229 231 232 233 235 236 237 238 239 239
289 288 286 283 281 278 276 273 270 268 266 264 262 261 259 258 256 253 251 248 245 243 241 239 238 236 235 234 233 233 233 233 233 233 232 231 231 231 230 230 230 230 230 229 229 228 227 226 226 225 224 223 223 223 222 223 223 224 224 224 222 221 221 221 221 222 222 222 221 220 221 224 226 227 227 228 229 230 232 233 234 235 236 237 238 239
290 288 286 284 282 279 277 274 271 269 267 265 263 261 260 258 255 253 250 246 243 241 239 237 236 234 233 232 232 231 232 232 232 232 232 231 230 230 230 230 230 229 229 229 228 228 227 226 225 224 224 223 222 222 221 222 222 223 223 222 221 220 220 220 221 221 222 221 220 219 220 222 225 226 227 227 228 230 231 232 233 234 235 236 237 238
291 289 287 285 283 280 277 275 272 270 268 266 264 262 260 258 255 252 249 245 242 239 237 235 234 232 231 230 230 230 230 231 231 231 231 230 230 230 230 230 230 229 229 229 228 228 227 226 225 224 223 223 222 222 221 221 221 221 222 221 220 219 219 219 220 221 221 220 219 218 217 220 223 226 227 227 228 229 230 232 233 233 234 235 236 237
291 289 287 285 283 281 278 276 273 271 269 266 264 262 260 257 255 251 248 244 241 238 235 233 232 231 229 229 228 229 229 230 230 230 230 229 229 229 229 229 229 229 229 229 228 228 227 225 225 224 223 222 221 221 221 221 221 221 221 220 219 218 218 218 219 219 219 219 217 217 217 220 223 225 226 227 228 229 231 232 233 233 234 235 236 237
291 290 288 286 284 281 279 276 274 272 269 266 264 262 259 256 253 250 246 243 239 236 234 232 230 229 228 228 227 228 228 229 229 229 229 229 229 229 229 229 229 229 229 228 228 227 226 225 224 223 223 222 221 220 220 220 220 220 220 219 218 217 217 217 218 218 218 217 216 215 217 220 222 224 225 227 228 229 231 232 233 233 234 234 235 236
292 290 288 287 284 282 280 277 275 272 269 267 264 261 258 255 252 248 245 241 238 235 233 231 229 228 227 226 226 227 227 228 228 228 228 228 228 228 228 228 228 228 229 228 228 227 226 225 224 223 222 221 220 220 219 219 219 220 219 218 217 216 216 216 216 216 216 215 215 215 216 219 221 223 224 226 228 229 230 232 232 233 233 234 234 235
292 291 289 287 285 283 281 278 275 273 270 267 264 261 258 254 251 247 244 240 237 235 232 230 229 227 226 226 226 226 226 226 227 227 227 227 228 228 228 228 228 228 228 228 228 227 226 225 224 223 222 221 220 219 219 219 219 219 219 218 217 215 215 214 214 214 214 214 214 215 216 218 220 221 223 224 226 228 230 231 232 233 233 233 234 235
293 291 290 288 286 284 282 279 276 273 271 268 264 261 257 254 250 246 243 240 237 235 232 230 229 227 226 226 226 226 226 226 226 226 226 227 227 228 228 228 228 228 228 228 228 227 226 225 224 223 222 221 220 219 219 219 219 220 219 217 215 214 213 213 213 213 213 214 215 215 216 218 220 221 222 223 224 227 229 231 233 233 233 233 233 234
294 292 290 289 287 285 282 280 277 274 271 268 265 261 257 253 250 246 243 240 237 235 233 231 229 228 227 226 226 226 226 225 225 226 226 227 228 228 228 228 228 228 228 228 228 227 226 225 223 222 222 220 220 219 218 219 219 219 218 216 214 212 212 212 211 211 212 214 215 216 217 219 220 221 221 222 224 226 229 231 232 233 233 233 233 234
295 293 291 289 287 285 283 280 277 274 271 268 265 261 257 253 249 246 243 240 237 235 233 231 229 228 227 226 226 226 226 226 226 227 227 228 228 228 228 228 228 228 228 228 228 227 226 224 223 222 221 220 219 218 218 218 219 219 217 214 212 212 212 211 211 211 212 214 216 215 214 216 218 219 220 221 223 226 229 231 232 233 232 233 233 234
296 294 292 290 288 286 283 281 278 275 271 268 264 260 256 253 249 245 242 239 237 235 233 231 229 228 227 227 226 226 226 227 227 228 228 229 229 229 229 229 229 229 229 229 228 227 226 224 223 221 220 219 218 217 217 217 218 217 215 212 211 211 210 210 210 211 213 215 216 216 216 217 219 220 220 222 224 226 229 231 232 232 232 232 233 234
297 296 294 291 289 287 284 281 277 274 271 267 263 259 256 252 248 244 241 238 235 233 231 230 228 227 227 227 226 227 227 227 228 229 229 230 230 230 230 230 230 229 229 229 228 227 225 224 222 221 220 218 217 216 216 216 216 214 212 210 210 209 209 209 210 212 214 216 216 215 216 217 219 220 221 223 224 227 229 231 232 232 232 233 233 234
298 297 295 292 290 287 284 281 277 273 270 266 262 258 254 250 246 243 239 236 233 231 229 228 227 226 226 226 226 226 226 227 228 229 230 230 230 230 230 230 230 230 229 229 228 226 225 224 222 221 220 218 216 215 215 214 213 211 209 209 209 208 208 209 210 213 215 215 214 214 214 216 218 219 221 223 225 227 229 231 231 232 232 233 234 234
299 297 295 293 290 287 284 280 277 273 268 264 260 256 252 248 244 241 237 234 231 229 227 226 225 225 225 225 225 225 226 227 228 229 230 230 230 231 231 231 230 230 229 228 227 226 224 223 222 221 219 218 216 215 214 212 210 208 207 208 208 207 207 209 211 213 214 213 212 212 213 215 217 219 220 222 225 227 229 230 231 231 232 233 234 234
299 296 294 292 290 287 284 280 276 272 267 263 258 254 250 246 243 239 235 232 230 227 226 225 224 224 224 224 224 225 226 227 228 229 230 231 231 231 231 231 231 230 229 227 226 225 223 222 221 220 218 217 216 214 212 210 207 205 205 206 206 207 207 209 211 212 212 210 209 209 211 213 216 218 220 223 225 228 229 230 230 231 232 233 234 235
298 296 294 291 289 286 283 279 275 271 266 262 257 252 248 244 240 237 233 231 228 226 225 224 223 223 223 224 224 225 226 227 228 229 230 231 232 232 232 232 231 230 228 227 225 223 222 221 219 218 217 215 214 212 209 206 204 203 203 204 205 206 207 210 211 211 210 208 207 208 210 212 215 218 221 223 226 227 228 229 230 231 232 233 234 235
Height
10491 10490 10490 10488 10486 10485 10483 10483 10483 10481 10480 10480 10480 10481 10481 10481 10482 10483 10484 10485 10487 10488 10491 10493 10496 10498 10500 10501 10502 10503 10503 10505 10506 10507 10509 10512 10515 10518 10523 10527 10530 10533 10536 10539 10542 10543 10545 10548 10551 10554 10557 10559 10561 10562 10564 10567 10570 10574 10575 10580 10583 10583 10586 10590 10590 10590 10591 10593 10595 10597 10599 10602 10603 10605 10605 10607 10607 10608 10608 10608 10608 10610 10612 10613 10614 10615
10484 10483 10483 10481 10479 10477 10476 10476 10475 10473 10471 10470 10471 10471 10472 10472 10472 10473 10475 10477 10478 10480 10482 10484 10487 10488 10491 10492 10493 10494 10495 10496 10497 10498 10500 10503 10505 10508 10513 10517 10521 10524 10527 10530 10533 10535 10537 10540 10543 10547 10550 10552 10554 10556 10558 10560 10563 10567 10570 10572 10574 10577 10579 10583 10585 10585 10585 10587 10588 10590 10592 10595 10597 10599 10600 10602 10603 10603 10603 10604 10605 10605 10607 10609 10610 10612
10476 10475 10475 10474 10472 10470 10469 10468 10467 10465 10463 10462 10462 10462 10462 10462 10463 10464 10465 10467 10468 10470 10472 10475 10477 10479 10482 10483 10484 10485 10486 10487 10488 10490 10492 10493 10496 10499 10503 10507 10512 10515 10518 10522 10524 10527 10529 10532 10535 10538 10542 10545 10547 10549 10552 10553 10556 10560 10565 10565 10566 10568 10572 10576 10579 10580 10580 10581 10583 10585 10587 10590 10592 10593 10595 10597 10598 10598 10599 10600 10600 10602 10603 10607 10607 10607
10468 10467 10466 10466 10465 10463 10462 10461 10460 10458 10455 10453 10453 10452 10452 10452 10453 10454 10456 10457 10459 10460 10462 10465 10467 10470 10472 10474 10475 10476 10477 10478 10480 10481 10482 10484 10487 10490 10493 10498 10502 10506 10510 10512 10515 10518 10520 10523 10527 10530 10533 10537 10539 10542 10545 10547 10548 10552 10557 10558 10560 10561 10564 10568 10572 10575 10574 10575 10578 10580 10582 10584 10585 10587 10589 10591 10593 10594 10595 10595 10596 10598 10600 10603 10605 10604
10458 10457 10457 10457 10457 10455 10454 10453 10452 10450 10448 10447 10445 10444 10443 10442 10443 10444 10446 10448 10449 10451 10452 10455 10457 10459 10462 10464 10466 10467 10468 10470 10471 10472 10473 10475 10477 10480 10484 10488 10492 10497 10501 10503 10505 10508 10512 10515 10519 10522 10525 10528 10531 10534 10538 10540 10542 10545 10548 10551 10553 10554 10557 10562 10565 10568 10568 10570 10572 10575 10577 10578 10579 10582 10583 10585 10587 10589 10590 10591 10592 10595 10598 10600 10600 10600
10448 10447 10447 10447 10447 10446 10446 10445 10443 10442 10440 10438 10437 10436 10435 10433 10433 10434 10436 10437 10439 10441 10443 10445 10447 10449 10452 10454 10457 10458 10460 10461 10462 10463 10465 10466 10468 10471 10475 10478 10482 10487 10492 10495 10497 10499 10503 10507 10510 10513 10515 10519 10523 10526 10530 10533 10536 10538 10541 10544 10548 10550 10552 10553 10558 10562 10564 10565 10567 10569 10572 10572 10573 10575 10578 10580 10582 10584 10586 10587 10588 10591 10594 10595 10596 10596
10437 10437 10437 10436 10435 10436 10436 10436 10435 10433 10431 10429 10428 10428 10427 10426 10425 10425 10426 10427 10429 10431 10433 10435 10438 10440 10442 10444 10447 10449 10451 10452 10452 10453 10455 10457 10459 10462 10465 10469 10473 10478 10483 10487 10488 10491 10493 10498 10502 10505 10507 10510 10514 10518 10522 10526 10529 10531 10534 10537 10541 10545 10546 10545 10548 10553 10558 10560 10562 10563 10565 10567 10568 10570 10572 10575 10577 10578 10580 10582 10583 10586 10589 10592 10593 10592
10426 10427 10427 10426 10425 10425 10425 10425 10425 10423 10422 10420 10419 10418 10418 10418 10417 10417 10417 10417 10419 10420 10423 10425 10428 10430 10432 10435 10437 10439 10440 10442 10443 10444 10446 10448 10450 10452 10456 10460 10463 10468 10473 10477 10480 10482 10485 10488 10492 10496 10498 10502 10505 10509 10513 10518 10522 10525 10527 10530 10533 10537 10539 10539 10540 10545 10552 10555 10557 10558 10559 10560 10562 10565 10567 10569 10571 10573 10575 10577 10579 10582 10584 10588 10590 10588
10415 10415 10415 10416 10415 10415 10414 10415 10415 10414 10412 10410 10409 10409 10409 10409 10408 10408 10408 10408 10409 10410 10412 10415 10417 10420 10423 10425 10428 10429 10431 10432 10433 10435 10437 10438 10441 10443 10447 10450 10454 10458 10463 10467 10472 10474 10476 10479 10483 10487 10490 10493 10497 10500 10505 10510 10515 10518 10520 10523 10526 10529 10533 10536 10535 10537 10545 10550 10553 10555 10555 10555 10557 10559 10562 10564 10566 10568 10570 10572 10574 10577 10578 10582 10584 10585
10404 10405 10405 10405 10405 10405 10403 10403 10404 10403 10402 10400 10398 10399 10400 10400 10399 10399 10399 10399 10400 10401 10402 10404 10407 10410 10413 10416 10418 10420 10421 10423 10424 10426 10428 10430 10432 10434 10437 10440 10444 10448 10453 10458 10462 10466 10468 10471 10474 10478 10482 10485 10489 10493 10497 10502 10507 10511 10513 10516 10519 10522 10527 10532 10532 10533 10538 10543 10547 10549 10549 10551 10552 10554 10557 10558 10560 10562 10565 10567 10569 10572 10573 10576 10577 10578
10393 10394 10394 10394 10394 10394 10394 10393 10393 10392 10392 10389 10388 10388 10389 10390 10389 10389 10390 10390 10391 10392 10393 10393 10396 10400 10403 10407 10408 10410 10412 10413 10415 10417 10419 10422 10423 10425 10428 10431 10435 10438 10443 10448 10453 10457 10460 10463 10466 10470 10473 10477 10482 10487 10490 10494 10498 10503 10507 10510 10512 10515 10519 10523 10526 10529 10533 10537 10539 10541 10543 10545 10547 10548 10550 10553 10555 10557 10560 10562 10564 10567 10568 10570 10572 10573
10383 10383 10383 10383 10383 10383 10383 10382 10382 10382 10380 10379 10378 10378 10378 10378 10379 10379 10380 10381 10383 10383 10383 10383 10386 10390 10393 10397 10398 10400 10403 10404 10406 10408 10411 10413 10415 10417 10419 10422 10425 10429 10434 10438 10443 10448 10452 10455 10458 10460 10465 10469 10474 10479 10483 10487 10491 10495 10499 10502 10506 10509 10512 10515 10519 10523 10528 10528 10530 10533 10537 10538 10540 10542 10545 10547 10550 10552 10555 10557 10559 10562 10563 10565 10567 10569
10373 10373 10373 10373 10373 10373 10373 10372 10371 10370 10370 10368 10367 10367 10367 10368 10368 10368 10370 10372 10374 10375 10374 10374 10376 10379 10383 10387 10390 10392 10393 10395 10397 10400 10402 10404 10406 10408 10410 10412 10415 10420 10425 10430 10434 10439 10444 10447 10450 10452 10457 10462 10467 10471 10476 10480 10483 10488 10492 10495 10498 10502 10504 10507 10512 10516 10520 10522 10524 10527 10531 10533 10534 10536 10539 10542 10544 10547 10550 10552 10554 10556 10558 10560 10562 10565
10362 10362 10362 10362 10362 10363 10362 10361 10360 10358 10358 10358 10357 10357 10357 10357 10358 10358 10359 10362 10365 10366 10366 10365 10367 10370 10373 10378 10381 10383 10384 10385 10388 10391 10393 10395 10397 10400 10402 10403 10407 10410 10415 10421 10425 10430 10435 10440 10442 10445 10448 10454 10459 10464 10468 10472 10476 10480 10484 10488 10492 10494 10497 10501 10505 10508 10512 10514 10518 10522 10525 10528 10528 10530 10534 10538 10540 10540 10544 10547 10549 10551 10553 10555 10557 10560
10352 10352 10352 10352 10352 10352 10351 10350 10348 10347 10347 10347 10346 10345 10346 10347 10347 10347 10348 10351 10355 10357 10357 10357 10358 10360 10364 10368 10371 10373 10376 10376 10378 10381 10383 10386 10389 10392 10393 10395 10397 10401 10407 10412 10417 10421 10427 10431 10434 10437 10440 10445 10451 10456 10460 10464 10468 10472 10477 10481 10485 10487 10490 10493 10498 10502 10507 10508 10512 10515 10518 10522 10523 10524 10527 10533 10536 10537 10538 10541 10543 10545 10548 10550 10552 10555
10342 10342 10341 10341 10341 10341 10340 10339 10337 10337 10336 10336 10335 10335 10335 10335 10337 10338 10339 10341 10344 10347 10348 10348 10350 10352 10355 10358 10361 10363 10365 10367 10368 10371 10374 10378 10380 10383 10385 10388 10389 10392 10397 10403 10408 10413 10418 10422 10426 10429 10433 10438 10443 10448 10453 10457 10460 10465 10470 10474 10478 10480 10483 10487 10492 10496 10499 10500 10505 10510 10513 10515 10517 10518 10521 10527 10531 10532 10533 10535 10537 10540 10542 10545 10547 10550
10332 10332 10330 10330 10330 10330 10329 10328 10326 10325 10325 10325 10324 10323 10324 10325 10327 10328 10329 10331 10333 10337 10338 10340 10342 10344 10346 10348 10351 10353 10355 10357 10359 10362 10366 10369 10372 10375 10377 10380 10382 10383 10388 10394 10399 10404 10410 10413 10418 10422 10427 10430 10435 10440 10445 10449 10453 10458 10462 10467 10471 10474 10477 10480 10485 10490 10495 10497 10499 10503 10507 10509 10510 10512 10516 10520 10524 10526 10526 10528 10532 10534 10537 10540 10543 10545
10322 10322 10320 10320 10319 10318 10318 10317 10315 10314 10313 10313 10313 10313 10313 10314 10316 10318 10319 10321 10323 10326 10328 10331 10333 10336 10338 10340 10341 10343 10345 10348 10351 10353 10358 10360 10363 10367 10369 10372 10373 10375 10380 10386 10391 10396 10401 10405 10410 10415 10420 10423 10428 10432 10437 10440 10445 10451 10455 10459 10463 10467 10470 10473 10478 10483 10487 10488 10492 10497 10500 10503 10504 10506 10511 10513 10517 10520 10520 10523 10526 10529 10532 10535 10538 10540
10312 10312 10310 10308 10307 10307 10307 10305 10304 10303 10302 10302 10302 10302 10303 10303 10305 10307 10309 10311 10313 10316 10318 10322 10325 10327 10330 10331 10332 10333 10336 10339 10341 10344 10348 10352 10355 10358 10362 10363 10366 10369 10373 10378 10383 10388 10393 10397 10402 10407 10413 10417 10421 10425 10428 10432 10436 10440 10446 10452 10457 10462 10465 10468 10472 10475 10478 10482 10486 10490 10493 10497 10498 10500 10505 10507 10510 10513 10514 10518 10521 10524 10527 10530 10533 10535
10302 10301 10300 10297 10295 10295 10295 10295 10293 10291 10290 10289 10290 10291 10292 10293 10295 10297 10298 10301 10303 10306 10308 10312 10315 10318 10321 10322 10323 10324 10326 10328 10331 10335 10340 10343 10347 10351 10353 10355 10359 10362 10364 10370 10375 10380 10385 10389 10394 10400 10405 10410 10414 10417 10420 10424 10427 10431 10437 10443 10448 10454 10459 10463 10467 10468 10471 10475 10479 10484 10488 10491 10492 10493 10498 10502 10505 10507 10509 10512 10516 10519 10522 10525 10528 10530
10292 10290 10289 10287 10284 10282 10283 10283 10282 10279 10277 10278 10278 10280 10281 10283 10284 10286 10287 10291 10293 10296 10299 10302 10306 10309 10312 10313 10314 10315 10317 10318 10322 10327 10332 10337 10340 10343 10345 10347 10350 10354 10357 10362 10368 10373 10377 10382 10387 10393 10398 10404 10407 10410 10413 10417 10419 10423 10428 10433 10440 10446 10452 10457 10458 10460 10463 10468 10473 10478 10482 10485 10485 10486 10490 10496 10501 10505 10507 10508 10510 10513 10517 10520 10522 10525
10280 10280 10278 10276 10273 10271 10271 10271 10270 10268 10266 10266 10267 10268 10270 10272 10273 10275 10277 10280 10283 10286 10290 10293 10297 10301 10304 10305 10306 10307 10308 10309 10312 10317 10325 10329 10332 10335 10338 10340 10343 10347 10351 10355 10361 10367 10371 10375 10380 10385 10392 10397 10400 10403 10406 10408 10410 10413 10420 10425 10432 10438 10445 10450 10452 10454 10457 10462 10467 10471 10475 10478 10478 10479 10484 10491 10497 10500 10503 10503 10504 10507 10510 10513 10517 10520
10268 10268 10267 10265 10263 10260 10260 10259 10258 10257 10255 10255 10255 10257 10260 10261 10262 10264 10267 10270 10273 10277 10281 10285 10288 10292 10295 10296 10297 10298 10299 10300 10303 10309 10316 10320 10323 10327 10332 10333 10337 10341 10345 10347 10353 10360 10364 10368 10372 10378 10384 10389 10393 10396 10399 10400 10402 10406 10411 10417 10423 10430 10437 10442 10446 10448 10452 10456 10461 10465 10468 10470 10471 10474 10479 10486 10492 10496 10497 10498 10498 10500 10503 10508 10512 10515
10256 10257 10256 10255 10253 10250 10249 10248 10247 10246 10245 10244 10245 10247 10248 10250 10252 10255 10258 10261 10264 10268 10272 10276 10280 10282 10285 10287 10288 10290 10290 10291 10295 10300 10307 10311 10315 10320 10324 10326 10329 10333 10337 10341 10347 10353 10358 10362 10366 10372 10377 10382 10385 10388 10391 10392 10393 10398 10403 10409 10416 10423 10428 10434 10439 10443 10447 10451 10455 10459 10462 10463 10466 10470 10475 10480 10485 10490 10493 10492 10492 10494 10497 10502 10506 10510
10244 10245 10245 10243 10242 10241 10239 10238 10237 10236 10235 10234 10235 10236 10238 10240 10242 10245 10248 10252 10255 10259 10263 10267 10270 10273 10275 10278 10280 10282 10282 10283 10287 10292 10297 10303 10308 10312 10315 10317 10320 10325 10329 10334 10341 10347 10352 10355 10361 10366 10370 10373 10377 10379 10382 10383 10386 10390 10395 10402 10409 10416 10421 10426 10431 10437 10442 10446 10450 10453 10455 10458 10462 10467 10470 10474 10479 10483 10485 10485 10485 10488 10492 10495 10499 10503
10233 10233 10233 10233 10232 10231 10230 10228 10227 10227 10225 10225 10225 10227 10228 10230 10233 10237 10240 10243 10247 10250 10254 10258 10262 10265 10268 10271 10272 10273 10273 10275 10278 10282 10288 10295 10301 10304 10307 10310 10313 10317 10322 10327 10332 10338 10343 10347 10352 10358 10362 10365 10367 10370 10373 10375 10378 10382 10388 10395 10403 10409 10414 10418 10423 10428 10435 10440 10443 10447 10450 10454 10458 10462 10465 10468 10472 10476 10480 10479 10480 10483 10487 10490 10493 10497
10223 10223 10223 10223 10222 10221 10220 10219 10218 10217 10217 10217 10217 10217 10219 10222 10225 10229 10233 10236 10239 10242 10246 10250 10253 10257 10260 10262 10263 10264 10266 10267 10270 10274 10281 10287 10292 10296 10298 10302 10307 10310 10314 10319 10324 10329 10335 10338 10343 10348 10353 10356 10359 10362 10365 10367 10370 10375 10381 10388 10396 10402 10407 10411 10415 10421 10427 10433 10437 10441 10445 10450 10454 10458 10461 10463 10466 10470 10473 10472 10473 10477 10481 10484 10488 10491
10214 10214 10213 10213 10212 10212 10210 10210 10209 10208 10208 10208 10208 10208 10210 10213 10217 10222 10225 10228 10231 10234 10237 10242 10245 10249 10251 10252 10254 10256 10258 10260 10262 10267 10273 10280 10284 10288 10292 10296 10300 10303 10307 10312 10315 10320 10327 10332 10337 10341 10345 10348 10352 10355 10357 10359 10362 10367 10374 10382 10389 10395 10400 10405 10410 10415 10420 10425 10430 10435 10440 10445 10448 10452 10455 10456 10458 10462 10467 10467 10469 10472 10476 10479 10483 10486
10205 10205 10205 10205 10203 10203 10202 10202 10201 10200 10200 10200 10200 10200 10202 10205 10210 10214 10217 10220 10223 10225 10228 10234 10238 10241 10243 10245 10247 10248 10250 10252 10255 10260 10266 10272 10276 10280 10285 10289 10292 10295 10300 10305 10309 10313 10319 10323 10329 10334 10338 10342 10345 10347 10350 10352 10357 10362 10368 10375 10382 10388 10393 10398 10404 10409 10413 10418 10423 10430 10435 10439 10442 10444 10447 10448 10451 10455 10460 10463 10465 10467 10470 10474 10478 10481
10197 10197 10197 10196 10195 10195 10193 10193 10193 10192 10192 10192 10192 10192 10193 10197 10201 10206 10209 10212 10214 10217 10222 10227 10230 10232 10234 10237 10239 10240 10242 10244 10248 10253 10258 10263 10268 10273 10278 10281 10283 10287 10293 10298 10302 10307 10310 10315 10320 10326 10330 10334 10338 10340 10343 10346 10351 10356 10362 10368 10375 10381 10387 10392 10398 10403 10408 10412 10418 10423 10430 10433 10435 10436 10439 10442 10445 10450 10454 10456 10458 10461 10465 10469 10473 10476
10188 10188 10188 10188 10188 10187 10186 10185 10185 10184 10183 10183 10183 10184 10186 10189 10193 10197 10201 10203 10207 10210 10215 10220 10222 10224 10227 10229 10232 10233 10235 10238 10242 10245 10249 10255 10261 10267 10270 10273 10276 10280 10285 10290 10295 10300 10303 10308 10313 10318 10323 10327 10330 10334 10337 10340 10345 10350 10356 10362 10368 10375 10382 10387 10393 10398 10402 10407 10412 10418 10424 10426 10427 10429 10433 10437 10440 10444 10448 10449 10451 10454 10458 10463 10467 10471
10180 10180 10180 10180 10180 10180 10179 10178 10177 10177 10176 10176 10177 10177 10179 10182 10185 10189 10193 10196 10200 10203 10208 10212 10214 10217 10219 10222 10225 10228 10230 10233 10234 10237 10241 10247 10254 10259 10262 10265 10269 10273 10278 10283 10288 10293 10298 10302 10306 10310 10315 10319 10323 10327 10330 10334 10339 10345 10350 10355 10362 10370 10377 10383 10388 10392 10397 10401 10407 10413 10418 10419 10420 10423 10427 10431 10435 10439 10442 10443 10445 10448 10452 10457 10461 10465
10173 10173 10173 10173 10172 10172 10171 10170 10170 10169 10168 10168 10169 10170 10172 10174 10178 10182 10185 10189 10193 10197 10201 10204 10207 10210 10212 10215 10219 10222 10224 10225 10225 10228 10233 10240 10247 10251 10255 10258 10262 10267 10272 10277 10282 10287 10292 10295 10299 10303 10308 10311 10315 10319 10324 10328 10333 10338 10343 10349 10357 10365 10372 10377 10382 10386 10390 10395 10401 10407 10412 10413 10414 10417 10422 10425 10430 10433 10436 10438 10441 10443 10447 10451 10455 10459
10167 10166 10165 10165 10165 10165 10164 10163 10163 10162 10162 10162 10162 10163 10165 10167 10171 10175 10179 10183 10187 10190 10193 10197 10200 10203 10206 10209 10213 10215 10216 10216 10217 10220 10227 10234 10240 10243 10247 10252 10256 10260 10265 10270 10275 10280 10286 10290 10293 10296 10300 10304 10308 10313 10318 10323 10327 10331 10336 10343 10351 10359 10365 10370 10375 10379 10383 10389 10397 10403 10407 10407 10408 10412 10416 10420 10423 10427 10430 10433 10437 10440 10443 10446 10450 10454
10160 10160 10159 10158 10158 10158 10157 10157 10156 10155 10155 10155 10156 10157 10158 10161 10165 10168 10172 10176 10180 10183 10187 10190 10193 10196 10199 10203 10206 10208 10208 10208 10210 10214 10220 10227 10233 10237 10241 10245 10250 10255 10259 10263 10268 10273 10280 10283 10286 10288 10293 10297 10302 10307 10312 10317 10320 10325 10330 10337 10345 10353 10358 10363 10368 10372 10377 10383 10392 10399 10403 10403 10404 10406 10410 10413 10417 10420 10423 10428 10433 10436 10439 10442 10445 10449
10155 10153 10153 10153 10152 10152 10151 10150 10150 10150 10150 10150 10150 10152 10153 10156 10158 10162 10166 10169 10173 10176 10180 10183 10186 10189 10193 10196 10198 10200 10200 10200 10203 10208 10214 10221 10227 10231 10235 10239 10243 10248 10253 10257 10262 10267 10273 10277 10280 10283 10287 10290 10295 10300 10305 10310 10315 10320 10326 10332 10340 10347 10352 10357 10362 10367 10372 10378 10385 10393 10399 10400 10399 10400 10403 10407 10410 10413 10417 10422 10427 10432 10436 10439 10442 10445
10149 10148 10147 10147 10146 10146 10145 10145 10145 10145 10145 10145 10146 10147 10148 10151 10153 10157 10160 10163 10166 10169 10173 10176 10179 10182 10186 10189 10192 10193 10193 10193 10197 10202 10209 10215 10221 10225 10229 10233 10238 10243 10247 10251 10256 10261 10267 10271 10274 10278 10282 10285 10288 10292 10298 10303 10310 10315 10320 10326 10333 10341 10347 10352 10357 10362 10367 10373 10380 10387 10393 10395 10394 10394 10397 10401 10405 10410 10413 10417 10422 10427 10432 10435 10438 10440
10144 10143 10142 10141 10141 10140 10140 10139 10139 10140 10140 10140 10142 10142 10144 10146 10148 10152 10154 10157 10160 10163 10166 10168 10172 10175 10178 10182 10184 10185 10185 10187 10191 10197 10204 10210 10215 10220 10224 10229 10233 10237 10241 10245 10251 10256 10261 10265 10268 10271 10275 10278 10282 10286 10291 10297 10303 10308 10312 10319 10327 10334 10340 10346 10352 10357 10362 10368 10374 10381 10387 10388 10388 10388 10391 10395 10401 10405 10410 10413 10417 10422 10427 10431 10434 10437
10139 10138 10137 10136 10135 10135 10135 10134 10134 10135 10135 10136 10137 10138 10140 10142 10143 10146 10148 10151 10153 10157 10159 10162 10165 10168 10172 10175 10177 10178 10179 10182 10187 10193 10200 10205 10209 10214 10219 10223 10228 10232 10236 10241 10247 10252 10255 10258 10262 10265 10268 10273 10277 10282 10286 10292 10296 10300 10306 10314 10323 10330 10335 10340 10345 10351 10357 10362 10369 10375 10380 10381 10381 10382 10385 10390 10395 10400 10403 10407 10410 10416 10421 10427 10431 10434
10134 10133 10132 10131 10130 10130 10130 10130 10130 10130 10131 10132 10132 10133 10135 10137 10138 10141 10143 10146 10148 10150 10153 10156 10159 10162 10165 10168 10170 10172 10175 10178 10183 10190 10195 10199 10204 10208 10213 10218 10223 10227 10231 10236 10242 10247 10250 10253 10257 10260 10263 10268 10272 10275 10280 10285 10290 10295 10301 10309 10317 10323 10328 10335 10341 10346 10352 10357 10363 10368 10372 10373 10374 10377 10380 10385 10390 10393 10397 10400 10405 10410 10415 10420 10425 10429
10130 10128 10127 10127 10126 10126 10125 10125 10126 10126 10127 10127 10128 10129 10130 10132 10134 10136 10138 10140 10143 10145 10148 10151 10154 10157 10160 10162 10165 10167 10170 10175 10180 10185 10190 10194 10198 10203 10208 10213 10218 10222 10226 10231 10237 10242 10246 10249 10252 10255 10258 10263 10266 10270 10273 10277 10282 10288 10295 10302 10309 10315 10322 10330 10337 10342 10347 10352 10357 10362 10365 10367 10369 10372 10377 10381 10385 10388 10391 10395 10399 10404 10410 10415 10419 10423
10127 10125 10123 10123 10122 10122 10122 10122 10122 10122 10123 10123 10124 10125 10127 10128 10130 10132 10133 10136 10138 10140 10143 10147 10150 10153 10155 10158 10160 10163 10167 10172 10176 10180 10185 10189 10193 10198 10203 10208 10213 10218 10222 10227 10232 10237 10241 10244 10247 10250 10253 10257 10260 10265 10268 10273 10277 10283 10288 10297 10305 10313 10321 10327 10332 10336 10341 10345 10350 10356 10360 10362 10365 10368 10372 10377 10381 10383 10386 10389 10393 10398 10405 10410 10414 10417
10123 10121 10120 10119 10118 10118 10118 10118 10118 10118 10119 10120 10121 10122 10123 10124 10126 10127 10129 10132 10133 10136 10139 10143 10146 10149 10152 10155 10157 10160 10164 10168 10172 10177 10180 10184 10188 10193 10198 10203 10208 10214 10219 10223 10227 10232 10235 10239 10243 10245 10248 10252 10255 10259 10263 10268 10273 10278 10285 10293 10303 10311 10318 10322 10326 10330 10334 10337 10343 10349 10355 10358 10360 10363 10368 10373 10376 10378 10381 10384 10388 10394 10400 10405 10409 10413
10119 10118 10117 10116 10115 10115 10115 10115 10115 10115 10116 10117 10117 10118 10119 10121 10122 10124 10126 10128 10130 10133 10137 10140 10143 10147 10150 10152 10155 10158 10161 10165 10168 10172 10175 10179 10183 10188 10195 10200 10205 10210 10216 10219 10222 10227 10232 10235 10238 10240 10243 10248 10252 10255 10260 10265 10269 10275 10282 10292 10300 10305 10308 10313 10319 10325 10328 10331 10337 10345 10352 10355 10357 10360 10365 10369 10372 10374 10376 10379 10384 10390 10396 10401 10405 10408
10115 10115 10113 10113 10113 10112 10112 10112 10112 10113 10113 10114 10114 10115 10116 10118 10119 10121 10123 10125 10128 10131 10134 10137 10141 10144 10147 10149 10152 10156 10159 10162 10165 10169 10172 10176 10180 10185 10191 10197 10202 10207 10212 10215 10218 10222 10227 10230 10233 10235 10239 10243 10247 10251 10256 10261 10265 10272 10280 10290 10297 10301 10305 10310 10315 10319 10320 10324 10332 10340 10348 10351 10353 10356 10360 10364 10367 10369 10371 10374 10380 10386 10392 10397 10401 10404
10113 10112 10111 10110 10110 10110 10110 10110 10110 10110 10110 10111 10112 10112 10113 10115 10117 10118 10120 10123 10125 10128 10132 10135 10139 10142 10144 10147 10150 10153 10157 10160 10163 10166 10170 10173 10178 10183 10188 10193 10198 10203 10208 10211 10215 10218 10222 10224 10227 10230 10234 10238 10242 10247 10252 10257 10262 10270 10279 10287 10292 10297 10303 10308 10311 10312 10312 10318 10328 10337 10343 10347 10348 10352 10355 10358 10362 10364 10367 10370 10376 10382 10388 10393 10397 10400
10110 10109 10108 10108 10107 10107 10107 10107 10107 10107 10108 10108 10109 10110 10111 10113 10114 10116 10118 10121 10123 10127 10130 10133 10137 10139 10142 10145 10148 10152 10155 10158 10160 10163 10167 10171 10175 10180 10185 10190 10195 10199 10203 10207 10210 10214 10217 10220 10223 10226 10229 10233 10238 10243 10247 10252 10259 10267 10275 10282 10287 10292 10298 10303 10305 10305 10308 10316 10325 10334 10340 10343 10345 10347 10350 10354 10357 10360 10362 10367 10373 10379 10384 10388 10392 10396
10108 10107 10106 10105 10105 10105 10105 10105 10105 10105 10106 10106 10107 10108 10109 10111 10112 10115 10117 10119 10122 10125 10128 10131 10134 10137 10139 10142 10145 10149 10152 10155 10158 10161 10164 10168 10172 10177 10182 10187 10191 10195 10198 10202 10206 10209 10212 10215 10218 10222 10225 10229 10233 10238 10243 10249 10257 10264 10271 10277 10282 10288 10293 10297 10298 10300 10306 10316 10325 10332 10337 10339 10340 10342 10346 10350 10352 10354 10358 10363 10370 10376 10381 10385 10388 10392
10105 10104 10103 10103 10103 10102 10102 10103 10103 10104 10104 10104 10105 10106 10107 10109 10111 10113 10115 10117 10120 10123 10125 10128 10131 10134 10137 10140 10143 10146 10149 10152 10155 10158 10161 10165 10168 10173 10178 10182 10187 10191 10195 10199 10203 10205 10208 10212 10215 10218 10222 10226 10230 10235 10240 10246 10253 10261 10267 10273 10278 10284 10288 10292 10293 10297 10305 10316 10325 10330 10333 10334 10335 10338 10342 10344 10346 10349 10354 10361 10367 10373 10377 10380 10383 10387
10103 10102 10102 10101 10100 10100 10100 10101 10102 10102 10102 10103 10103 10104 10105 10107 10109 10111 10113 10115 10118 10120 10123 10126 10128 10132 10135 10137 10140 10143 10146 10149 10152 10155 10158 10161 10165 10169 10173 10178 10182 10186 10190 10195 10198 10201 10204 10208 10212 10215 10219 10224 10228 10233 10238 10245 10252 10258 10265 10270 10275 10280 10284 10286 10288 10295 10305 10315 10322 10326 10328 10330 10333 10335 10337 10338 10340 10345 10352 10359 10365 10369 10372 10375 10379 10383
10101 10100 10099 10098 10098 10098 10098 10099 10100 10100 10100 10102 10102 10103 10104 10105 10107 10109 10112 10113 10116 10118 10121 10123 10126 10129 10132 10135 10137 10140 10143 10146 10149 10152 10155 10158 10162 10165 10170 10173 10177 10181 10185 10189 10193 10196 10199 10203 10207 10211 10215 10220 10225 10231 10236 10242 10248 10255 10261 10266 10272 10276 10279 10282 10287 10295 10305 10312 10317 10320 10323 10325 10327 10329 10330 10333 10337 10344 10351 10357 10361 10365 10368 10371 10375 10378